カタログに戻る

THORAD AGENA D DEB

運用中LEO
NORAD 4968·DEBRIS·🇺🇸 United States

打ち上げ Apr 8, 1970 から Vandenberg Space Force Base

Loading…

次のパス (今後24時間)

TLE

最新Source: Space-Track

元期: Sep 14, 2026, 12:09 UTC

1 04968U 70025GN  26257.50643986  .00000123  00000-0  22024-3 0  9993
2 04968 100.1798 271.8011 0019976 158.1302 356.7266 13.62761322796579

AllMySatでTHORAD AGENA D DEBをリアルタイム追跡

Download on the App Store